This is the latest recevied weather packets stored in our database for station/object GOLDWX. If no packets are shown the sender has not sent any weather packets the latest 10 day(s).
| Time | Temp. | Humidity | Pressure | Rain* | Wind** | Luminosity | Snow |
|---|---|---|---|---|---|---|---|
| 1777752750 | 22.78° C | 14% | 1015.7 hPa | 0 mm | - | - | - |
| 1777752148 | 21.67° C | 14% | 1015.9 hPa | 0 mm | - | - | - |
| 1777751847 | 21.67° C | 14% | 1016 hPa | 0 mm | - | - | - |
| 1777751245 | 21.67° C | 14% | 1016.2 hPa | 0 mm | - | - | - |
| 1777750946 | 21.67° C | 14% | 1016.1 hPa | 0 mm | - | - | - |
| 1777750343 | 21.67° C | 15% | 1016.2 hPa | 0 mm | - | - | - |
| 1777750042 | 21.67° C | 14% | 1016.3 hPa | 0 mm | - | - | - |
| 1777749440 | 21.67° C | 14% | 1016.3 hPa | 0 mm | - | - | - |
| 1777749140 | 21.67° C | 14% | 1016.5 hPa | 0 mm | - | - | - |
| 1777748538 | 21.11° C | 14% | 1016.5 hPa | 0 mm | - | - | - |
| 1777748237 | 21.11° C | 14% | 1016.6 hPa | 0 mm | - | - | - |
| 1777747334 | 21.11° C | 14% | 1016.7 hPa | 0 mm | - | - | - |
| 1777746732 | 21.11° C | 14% | 1016.9 hPa | 0 mm | - | - | - |
| 1777746431 | 21.11° C | 14% | 1016.9 hPa | 0 mm | - | - | - |
| 1777745829 | 20.56° C | 15% | 1017.1 hPa | 0 mm | - | - | - |
| 1777745529 | 20.56° C | 14% | 1017.2 hPa | 0 mm | - | - | - |
| 1777744927 | 20.56° C | 14% | 1017.3 hPa | 0 mm | - | - | - |
| 1777744627 | 20.56° C | 15% | 1017.3 hPa | 0 mm | - | - | - |
| 1777744024 | 20.56° C | 14% | 1017.3 hPa | 0 mm | - | - | - |
| 1777743724 | 21.11° C | 14% | 1017.3 hPa | 0 mm | - | - | - |
| 1777743122 | 22.22° C | 14% | 1017.2 hPa | 0 mm | - | - | - |
| 1777742821 | 22.78° C | 13% | 1017.1 hPa | 0 mm | - | - | - |
| 1777742219 | 23.33° C | 18% | 1017.2 hPa | 0 mm | - | - | - |
| 1777741919 | 22.78° C | 18% | 1017.2 hPa | 0 mm | - | - | - |
| 1777741318 | 22.78° C | 20% | 1017.3 hPa | 0 mm | - | - | - |
* Rain since midnight (hover to see other rain measurements)
** Current wind speed in m/s (hover to see current wind gust speed)